Total_Precipitation_Accumulation
1.89 2.12 2.29 2.49 2.80 3.06 3.25 3.51 3.77 4.17 4.47 4.88 5.23 5.42 5.62 5.83 5.91 5.89 5.89 5.85 5.78 5.92 6.01 5.73 5.81 5.74 5.61 5.39 5.38 5.33 5.11 4.84 4.81 4.70 4.24 3.52 3.08 3.03 2.94 2.92 3.14 3.13 3.07
1.90 2.26 2.62 3.03 3.29 3.50 3.59 3.86 4.21 4.52 4.69 5.08 5.61 6.12 6.36 6.45 6.47 6.51 6.66 6.68 6.64 6.81 6.86 6.86 6.61 6.45 6.22 5.73 5.38 5.28 5.06 4.68 4.78 4.81 4.81 4.08 3.55 3.00 2.53 2.61 2.65 2.75 2.98
2.09 2.40 2.89 3.25 3.36 3.49 3.63 3.82 4.38 4.88 5.33 5.76 6.34 6.85 7.20 7.22 7.07 6.75 6.86 7.01 6.81 6.83 7.08 7.18 6.95 6.61 6.07 5.51 5.41 5.39 5.22 4.96 4.83 4.71 4.97 4.41 3.84 3.33 2.74 2.43 2.37 2.50 2.58
2.07 2.42 2.73 3.04 3.22 3.35 3.66 3.94 4.39 5.08 5.61 5.90 6.54 7.23 7.47 7.71 7.76 7.57 7.28 7.09 6.82 6.64 6.58 6.50 6.16 5.82 5.46 5.18 5.05 5.16 5.07 5.02 4.76 4.64 4.31 4.05 3.74 3.50 3.04 2.53 2.29 2.37 2.39
1.88 2.25 2.49 2.81 3.24 3.36 3.48 3.69 4.25 4.90 5.65 6.29 6.80 7.42 7.88 8.14 8.08 7.66 7.19 6.66 6.32 5.86 5.42 5.12 4.97 4.93 4.77 4.59 4.49 4.58 4.52 4.25 4.09 4.08 4.06 3.99 3.70 3.32 3.09 2.78 2.53 2.47 2.24
1.77 1.95 2.24 2.55 2.89 2.96 3.21 3.50 3.95 4.68 5.40 6.00 6.60 7.13 7.53 7.65 7.36 6.82 6.28 5.90 5.54 5.01 4.46 4.24 4.14 4.05 3.89 3.70 3.60 3.64 3.67 3.70 3.74 3.80 3.79 3.75 3.68 3.41 3.37 3.15 2.84 2.69 2.46
1.79 2.02 2.23 2.55 2.72 2.78 3.03 3.40 3.94 4.58 4.98 5.44 5.95 6.29 6.51 6.65 6.62 6.33 5.87 5.48 4.97 4.48 4.01 3.62 3.46 3.20 3.04 2.98 3.06 3.06 3.03 3.15 3.25 3.34 3.44 3.46 3.35 3.21 3.28 3.38 3.12 2.82 2.60
1.94 2.26 2.37 2.55 2.74 2.77 2.97 3.35 3.81 4.20 4.39 4.58 4.98 5.32 5.49 5.53 5.41 5.26 4.87 4.55 4.18 3.86 3.60 3.19 2.86 2.63 2.49 2.41 2.60 2.64 2.64 2.73 2.83 2.88 3.14 3.10 2.98 3.07 3.16 3.31 3.46 3.35 2.96
1.98 2.27 2.44 2.55 2.67 2.71 2.89 3.09 3.37 3.53 3.71 3.86 4.07 4.31 4.37 4.28 4.14 3.98 3.74 3.54 3.34 2.99 2.85 2.65 2.50 2.38 2.31 2.33 2.42 2.40 2.44 2.58 2.64 2.67 2.80 2.91 2.88 2.94 2.96 3.06 3.21 3.36 3.16
1.96 2.17 2.28 2.40 2.47 2.46 2.57 2.66 2.87 3.02 3.20 3.28 3.32 3.25 3.30 3.25 3.09 2.90 2.79 2.61 2.43 2.33 2.32 2.27 2.29 2.25 2.18 2.24 2.33 2.21 2.24 2.35 2.35 2.36 2.46 2.55 2.56 2.70 2.73 2.82 2.95 3.06 3.03
1.87 1.96 2.05 2.07 2.10 2.10 2.18 2.34 2.51 2.69 2.79 2.80 2.87 2.82 2.71 2.52 2.41 2.27 2.17 2.09 2.03 2.02 2.01 2.04 2.08 2.11 2.11 2.16 2.12 1.96 1.99 2.05 2.22 2.33 2.37 2.40 2.45 2.55 2.51 2.54 2.58 2.69 2.88
1.84 1.76 1.78 1.80 1.83 1.89 2.01 2.17 2.22 2.31 2.36 2.46 2.51 2.55 2.48 2.32 2.13 2.01 1.92 1.91 1.92 1.90 1.91 1.93 1.90 1.94 2.08 2.17 2.08 1.93 1.88 2.00 2.14 2.26 2.38 2.33 2.28 2.31 2.35 2.43 2.43 2.44 2.61
1.88 1.81 1.79 1.76 1.79 1.96 2.01 1.99 2.09 2.14 2.20 2.36 2.38 2.38 2.43 2.30 2.10 2.00 2.01 1.99 1.94 1.91 1.88 1.84 1.85 1.89 1.96 2.00 1.91 1.84 1.80 1.84 1.93 2.03 2.08 2.11 2.13 2.05 2.04 2.09 2.17 2.18 2.21
1.99 2.04 2.08 2.02 1.94 2.00 2.17 2.15 2.22 2.26 2.28 2.28 2.21 2.04 1.97 1.98 1.99 1.95 1.91 1.86 1.82 1.85 1.87 1.87 1.88 1.85 1.77 1.65 1.58 1.57 1.60 1.65 1.64 1.69 1.71 1.79 1.92 1.94 1.94 1.88 1.98 2.08 2.23
2.18 2.16 2.09 2.08 1.98 1.95 2.13 2.26 2.27 2.22 2.45 2.51 2.37 2.18 1.98 1.95 1.97 1.92 1.85 1.79 1.73 1.64 1.72 1.78 1.71 1.59 1.45 1.27 1.30 1.37 1.38 1.48 1.49 1.49 1.41 1.41 1.64 1.79 1.75 1.58 1.76 2.00 2.18
2.34 2.32 2.30 2.28 2.21 2.10 2.17 2.33 2.31 2.24 2.39 2.42 2.49 2.51 2.40 2.35 2.21 2.01 1.92 1.90 1.87 1.82 1.74 1.72 1.65 1.50 1.22 1.24 1.21 1.31 1.42 1.52 1.48 1.50 1.49 1.37 1.41 1.49 1.44 1.36 1.50 1.78 1.89
2.62 2.59 2.62 2.56 2.56 2.53 2.46 2.47 2.38 2.31 2.36 2.49 2.56 2.54 2.50 2.40 2.29 2.04 1.93 1.97 1.95 1.90 1.81 1.67 1.63 1.59 1.49 1.36 1.16 1.18 1.32 1.42 1.42 1.44 1.47 1.28 1.19 1.38 1.40 1.41 1.38 1.44 1.48
2.61 2.65 2.77 2.75 2.73 2.63 2.58 2.49 2.41 2.47 2.58 2.65 2.63 2.53 2.37 2.31 2.22 2.14 2.09 2.04 1.95 1.87 1.81 1.72 1.61 1.50 1.26 1.12 1.00 1.03 1.14 1.35 1.37 1.34 1.40 1.46 1.36 1.29 1.35 1.35 1.35 1.39 1.42
2.67 2.65 2.64 2.63 2.68 2.61 2.52 2.47 2.43 2.47 2.51 2.51 2.38 2.30 2.30 2.31 2.14 2.12 2.08 2.03 1.94 1.83 1.71 1.62 1.56 1.49 1.30 1.09 0.96 1.03 1.16 1.34 1.35 1.31 1.30 1.38 1.38 1.37 1.33 1.36 1.48 1.52 1.50
2.43 2.35 2.21 2.16 2.35 2.50 2.49 2.38 2.31 2.30 2.27 2.09 1.92 1.82 1.92 2.01 1.88 1.78 1.75 1.76 1.77 1.76 1.66 1.51 1.47 1.44 1.41 1.29 1.11 1.11 1.15 1.28 1.33 1.40 1.37 1.31 1.31 1.34 1.29 1.40 1.59 1.59 1.54
1.94 1.89 1.86 1.94 2.08 2.14 2.18 2.21 2.12 2.14 2.03 1.85 1.75 1.74 1.71 1.72 1.68 1.70 1.70 1.64 1.59 1.64 1.66 1.61 1.49 1.40 1.30 1.20 1.08 1.05 0.95 1.08 1.22 1.29 1.38 1.31 1.23 1.21 1.22 1.36 1.46 1.48 1.46
1.62 1.57 1.69 1.80 1.85 1.79 1.80 1.91 1.91 1.92 1.81 1.71 1.64 1.69 1.67 1.56 1.63 1.81 1.75 1.68 1.69 1.67 1.64 1.64 1.54 1.33 1.20 1.06 0.96 0.95 0.97 1.02 1.16 1.28 1.32 1.27 1.21 1.19 1.24 1.27 1.34 1.37 1.44
1.36 1.43 1.48 1.62 1.73 1.73 1.75 1.80 1.77 1.69 1.67 1.71 1.65 1.58 1.51 1.60 1.67 1.79 1.75 1.67 1.63 1.52 1.40 1.37 1.32 1.20 1.07 0.94 0.87 0.87 0.93 1.02 1.08 1.15 1.22 1.19 1.20 1.20 1.31 1.36 1.38 1.47 1.66
1.24 1.32 1.38 1.44 1.58 1.56 1.57 1.70 1.64 1.58 1.69 1.78 1.70 1.56 1.46 1.45 1.52 1.59 1.61 1.52 1.45 1.37 1.27 1.20 1.15 1.09 1.06 0.96 0.87 0.87 0.90 0.96 1.02 1.07 1.13 1.20 1.26 1.29 1.39 1.53 1.63 1.67 1.75
1.37 1.37 1.40 1.40 1.39 1.39 1.41 1.42 1.45 1.55 1.72 1.68 1.53 1.40 1.28 1.24 1.29 1.29 1.28 1.28 1.18 1.14 1.12 1.02 0.94 1.00 1.00 0.92 0.92 0.90 0.89 0.93 0.96 0.99 1.13 1.34 1.39 1.48 1.57 1.62 1.67 1.71 1.66
1.31 1.37 1.33 1.24 1.24 1.31 1.35 1.28 1.22 1.35 1.60 1.57 1.33 1.18 1.10 1.06 0.98 0.96 0.98 0.98 0.97 0.94 0.89 0.90 0.86 0.80 0.79 0.78 0.78 0.81 0.86 0.91 0.99 1.03 1.19 1.30 1.36 1.46 1.53 1.55 1.56 1.60 1.61